Regional Weather Roundup
Issued by NWS

Home | Current Version | Previous Version | Graphics & Text | Print | Product List | Glossary On
Versions: 1 2 3 4 5 6 7 8 9 10 11 12 13 14 15 16 17 18 19 20 21 22 23 24 25 26 27 28 29 30 31 32 33 34 35 36 37 38 39 40 41 42 43 44 45 46 47 48 49 50
000
ASUS45 KSLC 060510
RWRUT

UTAH REGIONAL WEATHER ROUNDUP
NATIONAL WEATHER SERVICE SALT LAKE CITY UT
1000 PM MST FRI FEB 05 2016

UTZ001>011-023>025-060600-

NORTHERN UTAH

CITY           SKY/WX    TMP DP  RH WIND       PRES   REMARKS
BRIGHAM CITY   CLOUDY    30  27  86 CALM      30.53F
HILL AFB       CLOUDY    31  22  69 SE7       30.51F WCI  24
LOGAN          CLOUDY    27  25  92 SW8       30.51F FOG     WCI  19
OGDEN          CLOUDY    32  28  85 CALM      30.51F
PROVO AIRPORT  PTCLDY    12   9  85 CALM      30.56S
SALT LAKE CITY PTCLDY    28  22  78 SE7       30.54S WCI  21
VERNAL         CLOUDY     8   4  83 CALM      30.53S
WENDOVER       PTCLDY    27  19  74 NE7       30.52S WCI  19
HEBER CITY     PTCLDY    10   9  92 CALM      30.51R
WEST JORDAN    CLEAR     21  18  86 S6        30.54R WCI  14

$$

UTZ012>022-026-027-060600-

SOUTHERN/CENTRAL UTAH

CITY           SKY/WX    TMP DP  RH WIND       PRES   REMARKS
BLANDING       PTCLDY    15  11  85 N10       30.55R WCI   2
BRYCE CANYON   CLEAR      3   0  87 W7        30.47S WCI  -9
CEDAR CITY     PTCLDY    14  12  92 CALM      30.49R
DELTA          CLOUDY     8   6  92 NE3       30.55S VSB<1/4
HANKSVILLE     CLOUDY    18  18 100 N8        30.62S WCI   7
MILFORD        PTCLDY     6   3  87 CALM      30.53S
MOAB/CYNLANDS  CLOUDY    18  15  88 W3        30.58R
PRICE          CLEAR     11   5  77 CALM      30.49S
ST GEORGE      PTCLDY    41  21  45 N5        30.51S
KANAB          CLEAR     32  23  69 N12       30.52F WCI  23

$$

REGIONAL REPORTS     COLORADO/ARIZONA

CITY           SKY/WX    TMP DP  RH WIND       PRES   REMARKS
CRAIG, CO      CLOUDY    -5  -9  83 CALM      30.49R
GRAND JUNCTION CLOUDY    10   8  92 CALM      30.56S
RIFLE          CLOUDY     9   3  77 CALM      30.55R
MONTROSE       CLOUDY    13   6  74 S6        30.55S WCI   4
CORTEZ         CLOUDY    13   7  77 E5        30.47S WCI   5
PAGE, AZ       CLEAR     32  22  66 CALM      30.51S
GRAND CANYON   PTCLDY    17  12  80 E3        30.47F
KINGMAN        CLEAR     38  32  79 NE6       30.44R WCI  33
FLAGSTAFF      PTCLDY    25  12  58 E8        30.45R WCI  16

$$

REGIONAL REPORTS    NEVADA/IDAHO/WYOMING

CITY           SKY/WX    TMP DP  RH WIND       PRES   REMARKS
LAS VEGAS, NV  CLEAR     47  26  44 W6        30.43R
ELY            CLEAR     10   6  84 S13       30.49S WCI  -5
ELKO           MOCLDY    11   8  88 CALM      30.50R
POCATELLO, ID  CLOUDY    20  18  92 N5        30.50S WCI  13
BURLEY         PTCLDY    23  21  92 NE3       30.45S
EVANSTON, WY   CLOUDY    22  16  78 W13       30.46R WCI  10
ROCK SPRINGS   CLOUDY    22  15  75 W28       30.36S WCI   4

$$



USA.gov is the U.S. government's official web portal to all federal, state and local government web resources and services.